Weather History for Clinton, MO

Change the Weather History Date:

Friday, February 15, 2013

  Actual Average (KSZL) Record (KSZL)
Temperature  
Mean Temperature 34 °F -  
Max Temperature 39 °F 44 °F 62 °F (1999)
Min Temperature 28 °F 27 °F 1 °F (2007)
Degree Days  
Heating Degree Days 32    
Moisture  
Dew Point 18 °F    
Average Humidity 54    
Maximum Humidity 81    
Minimum Humidity 28    
Precipitation  
Precipitation 0.00 in - - ()
Sea Level Pressure  
Sea Level Pressure 30.29 in    
Wind  
Wind Speed 9 mph (NW)    
Max Wind Speed 17 mph    
Max Gust Speed 24 mph    
Visibility 10 miles    
Events Rain    
Averages and records for this station are not official NWS values.
T = Trace of Precipitation, MM = Missing Value Source: NWS Daily Summary

Daily Weather History Graph

Daily Weather History Graph

Search for Another Location

Airport:

Trip Planner

Search our weather history database for the weather conditions in past years. The results will help you decide how hot, cold, wet, or windy it might be!

Date:

Astronomy

Feb. 15, 2013 Rise Set
Actual Time 7:04 AM CST 5:53 PM CST
Civil Twilight 6:37 AM CST 6:20 PM CST
Nautical Twilight 6:06 AM CST 6:51 PM CST
Astronomical Twilight 5:36 AM CST 7:22 PM CST
Moon 9:46 AM CST (2/15) 11:49 PM CST (2/15)
Length of Visible Light 11h 42m
Length of Day
10h 48m
Waxing Crescent, 30% of the Moon is Illuminated
Feb 15
Waxing Crescent
Feb 17
First Quarter
Feb 25
Full
Mar 4
Last Quarter
Mar 11
New

Hourly Weather History & Observations

Time (CST) Temp. Windchill Dew Point Humidity Pressure Visibility Wind Dir Wind Speed Gust Speed Precip Events Conditions
12:15 AM 39.2 °F 33.6 °F 28.4 °F 65% 30.15 in 10.0 mi WNW 8.1 mph - N/A   Clear
12:35 AM 39.2 °F 33.6 °F 26.6 °F 61% 30.15 in 10.0 mi WNW 8.1 mph - N/A   Clear
12:55 AM 39.2 °F 33.6 °F 26.6 °F 61% 30.16 in 10.0 mi WNW 8.1 mph - N/A   Clear
1:15 AM 37.4 °F 29.8 °F 26.6 °F 65% 30.16 in 10.0 mi WNW 11.5 mph - N/A   Clear
1:35 AM 37.4 °F 30.8 °F 26.6 °F 65% 30.17 in 10.0 mi NW 9.2 mph - N/A   Clear
1:55 AM 35.6 °F 29.2 °F 26.6 °F 70% 30.17 in 10.0 mi WNW 8.1 mph - N/A   Clear
2:15 AM 35.6 °F 28.6 °F 26.6 °F 70% 30.18 in 10.0 mi WNW 9.2 mph - N/A   Mostly Cloudy
2:35 AM 37.4 °F 30.3 °F 26.6 °F 65% 30.19 in 10.0 mi NW 10.4 mph - N/A   Overcast
2:55 AM 37.4 °F 30.3 °F 28.4 °F 70% 30.19 in 10.0 mi NW 10.4 mph - N/A   Overcast
3:15 AM 37.4 °F 32.1 °F 28.4 °F 70% 30.20 in 10.0 mi NW 6.9 mph - N/A   Overcast
3:35 AM 37.4 °F 30.3 °F 28.4 °F 70% 30.21 in 10.0 mi WNW 10.4 mph - N/A   Overcast
3:55 AM 35.6 °F 28.6 °F 28.4 °F 75% 30.21 in 10.0 mi NW 9.2 mph - N/A   Overcast
4:15 AM 35.6 °F 26.6 °F 30.2 °F 81% 30.23 in 9.0 mi North 13.8 mph 21.9 mph N/A   Overcast
4:35 AM 33.8 °F 25.3 °F 28.4 °F 81% 30.23 in 5.0 mi North 11.5 mph 17.3 mph N/A Rain Light Rain
4:55 AM 33.8 °F 25.3 °F 24.8 °F 70% 30.24 in 10.0 mi NNW 11.5 mph - N/A   Mostly Cloudy
5:15 AM 33.8 °F 25.3 °F 24.8 °F 70% 30.25 in 10.0 mi North 11.5 mph - N/A   Mostly Cloudy
5:35 AM 33.8 °F 23.5 °F 21.2 °F 60% 30.26 in 10.0 mi NNW 16.1 mph 19.6 mph N/A   Overcast
5:55 AM 32.0 °F 22.5 °F 19.4 °F 60% 30.27 in 10.0 mi NNW 12.7 mph - N/A   Overcast
6:15 AM 32.0 °F 21.2 °F 17.6 °F 55% 30.28 in 10.0 mi NNW 16.1 mph - N/A   Overcast
6:35 AM 32.0 °F 22.5 °F 19.4 °F 60% 30.29 in 10.0 mi NNW 12.7 mph 18.4 mph N/A   Overcast
6:55 AM 30.2 °F 19.8 °F 17.6 °F 60% 30.30 in 10.0 mi NW 13.8 mph - N/A   Mostly Cloudy
7:15 AM 30.2 °F 19.8 °F 17.6 °F 60% 30.31 in 10.0 mi NNW 13.8 mph 18.4 mph N/A   Partly Cloudy
7:35 AM 28.4 °F 18.5 °F 14.0 °F 55% 30.32 in 10.0 mi North 11.5 mph - N/A   Clear
7:55 AM 30.2 °F 22.6 °F 14.0 °F 51% 30.33 in 10.0 mi NNW 8.1 mph - N/A   Clear
8:15 AM 30.2 °F 21.9 °F 15.8 °F 55% 30.34 in 10.0 mi NW 9.2 mph - N/A   Clear
8:35 AM 30.2 °F 21.9 °F 17.6 °F 60% 30.35 in 10.0 mi NNW 9.2 mph - N/A   Clear
8:55 AM 32.0 °F 23.0 °F 17.6 °F 55% 30.36 in 10.0 mi NNW 11.5 mph - N/A   Clear
9:15 AM 32.0 °F 22.1 °F 17.6 °F 55% 30.36 in 10.0 mi North 13.8 mph - N/A   Clear
9:35 AM 32.0 °F 23.0 °F 17.6 °F 55% 30.36 in 10.0 mi North 11.5 mph - N/A   Clear
9:55 AM 32.0 °F 23.0 °F 17.6 °F 55% 30.36 in 10.0 mi NNW 11.5 mph - N/A   Clear
10:15 AM 32.0 °F 22.5 °F 17.6 °F 55% 30.36 in 10.0 mi North 12.7 mph - N/A   Clear
10:35 AM 32.0 °F 23.6 °F 15.8 °F 51% 30.36 in 10.0 mi NW 10.4 mph - N/A   Clear
10:55 AM 33.8 °F 25.8 °F 15.8 °F 48% 30.36 in 9.0 mi NW 10.4 mph - N/A   Clear
11:15 AM 33.8 °F 27.7 °F 14.0 °F 44% 30.36 in 10.0 mi NNW 6.9 mph - N/A   Clear
11:55 AM 35.6 °F 28.0 °F 14.0 °F 41% 30.35 in 10.0 mi NNW 10.4 mph - N/A   Clear
12:15 PM 35.6 °F 27.5 °F 12.2 °F 38% 30.34 in 9.0 mi NNW 11.5 mph - N/A   Clear
12:35 PM 35.6 °F 27.1 °F 12.2 °F 38% 30.34 in 10.0 mi NNW 12.7 mph - N/A   Clear
12:55 PM 37.4 °F 30.3 °F 12.2 °F 36% 30.32 in 10.0 mi NW 10.4 mph - N/A   Clear
1:15 PM 37.4 °F 29.8 °F 10.4 °F 33% 30.31 in 10.0 mi NW 11.5 mph 17.3 mph N/A   Clear
1:35 PM 37.4 °F 30.8 °F 10.4 °F 33% 30.31 in 10.0 mi NNW 9.2 mph - N/A   Clear
1:55 PM 37.4 °F 30.8 °F 10.4 °F 33% 30.30 in 10.0 mi WNW 9.2 mph - N/A   Clear
2:15 PM 39.2 °F 32.0 °F 10.4 °F 31% 30.29 in 10.0 mi West 11.5 mph 16.1 mph N/A   Clear
2:35 PM 39.2 °F 31.6 °F 10.4 °F 31% 30.30 in 10.0 mi WNW 12.7 mph 18.4 mph N/A   Clear
2:55 PM 39.2 °F 30.8 °F 8.6 °F 28% 30.29 in 10.0 mi WNW 15.0 mph - N/A   Clear
3:15 PM 39.2 °F 31.2 °F 10.4 °F 31% 30.30 in 10.0 mi WNW 13.8 mph - N/A   Clear
3:35 PM 39.2 °F 30.5 °F 10.4 °F 31% 30.30 in 10.0 mi NW 16.1 mph - N/A   Clear
3:55 PM 39.2 °F 30.2 °F 10.4 °F 31% 30.30 in 10.0 mi NW 17.3 mph 23.0 mph N/A   Clear
4:15 PM 37.4 °F 28.2 °F 10.4 °F 33% 30.30 in 10.0 mi NW 16.1 mph 20.7 mph N/A   Clear
4:35 PM 37.4 °F 28.9 °F 10.4 °F 33% 30.30 in 9.0 mi WNW 13.8 mph 24.2 mph N/A   Clear
4:55 PM 37.4 °F 29.8 °F 14.0 °F 38% 30.30 in 10.0 mi NW 11.5 mph - N/A   Clear
5:15 PM 35.6 °F 27.5 °F 12.2 °F 38% 30.30 in 10.0 mi NW 11.5 mph - N/A   Clear
5:35 PM 35.6 °F 27.1 °F 12.2 °F 38% 30.30 in 10.0 mi NW 12.7 mph - N/A   Clear
5:55 PM 33.8 °F 26.4 °F 14.0 °F 44% 30.30 in 10.0 mi NW 9.2 mph - N/A   Clear
6:15 PM 32.0 °F 25.6 °F 14.0 °F 48% 30.30 in 10.0 mi NW 6.9 mph - N/A   Clear
6:35 PM 32.0 °F 25.6 °F 15.8 °F 51% 30.30 in 10.0 mi NNW 6.9 mph - N/A   Clear
6:55 PM 32.0 °F - 17.6 °F 55% 30.30 in 10.0 mi Calm Calm - N/A   Clear
7:15 PM 30.2 °F - 17.6 °F 60% 30.30 in 10.0 mi Calm Calm - N/A   Clear
7:35 PM 30.2 °F - 17.6 °F 60% 30.30 in 10.0 mi Calm Calm - N/A   Clear
7:55 PM 30.2 °F - 17.6 °F 60% 30.30 in 10.0 mi Calm Calm - N/A   Clear
8:15 PM 30.2 °F - 17.6 °F 60% 30.31 in 10.0 mi Calm Calm - N/A   Clear
8:35 PM 30.2 °F - 17.6 °F 60% 30.30 in 10.0 mi Calm Calm - N/A   Clear
8:55 PM 30.2 °F - 21.2 °F 69% 30.30 in 10.0 mi Calm Calm - N/A   Partly Cloudy
9:15 PM 28.4 °F - 17.6 °F 64% 30.30 in 10.0 mi Calm Calm - N/A   Scattered Clouds
9:35 PM 28.4 °F - 19.4 °F 69% 30.30 in 10.0 mi Calm Calm - N/A   Mostly Cloudy
9:55 PM 30.2 °F - 19.4 °F 64% 30.29 in 10.0 mi Calm Calm - N/A   Scattered Clouds
10:15 PM 30.2 °F - 17.6 °F 60% 30.29 in 10.0 mi Calm Calm - N/A   Partly Cloudy
10:35 PM 30.2 °F 25.4 °F 19.4 °F 64% 30.30 in 10.0 mi NNE 4.6 mph - N/A   Mostly Cloudy
10:55 PM 30.2 °F 23.4 °F 19.4 °F 64% 30.30 in 10.0 mi NNE 6.9 mph - N/A   Mostly Cloudy
11:15 PM 30.2 °F 21.9 °F 17.6 °F 60% 30.30 in 10.0 mi NNE 9.2 mph - N/A   Overcast
11:35 PM 30.2 °F 25.4 °F 21.2 °F 69% 30.30 in 10.0 mi North 4.6 mph - N/A   Mostly Cloudy
11:55 PM 30.2 °F 23.4 °F 21.2 °F 69% 30.30 in 10.0 mi NNE 6.9 mph - N/A   Mostly Cloudy